Regional Weather Roundup
Issued by NWS Wakefield, VA

Home | Current Version | Previous Version | Graphics & Text | Print | Product List | Glossary On
Versions: 1 2 3 4 5 6 7 8 9 10 11 12 13 14 15 16 17 18 19 20 21 22 23 24 25 26 27 28 29 30 31 32 33 34 35 36 37 38 39 40 41 42 43 44 45 46 47 48 49 50
000
ASUS41 KAKQ 031015
RWRAKQ

REGIONAL WEATHER ROUNDUP
NATIONAL WEATHER SERVICE WAKEFIELD VA
600 AM EDT FRI JUL 03 2015

Note: "fair" indicates few or no clouds below 12,000 feet with no
significant weather and/or obstructions to visibility. * = Denotes
station may not report precipitation (e.g., rain,snow,etc.),
thunder or fog.

VAZ042-051-052>054-056-031100-
NORTHERN VIRGINIA

CITY           SKY/WX    TMP DP  RH WIND       PRES   REMARKS
WASH NATIONAL  FOG       66  64  94 CALM      29.95R VSB 1/2
DULLES         PTCLDY    59  57  94 CALM      29.95R FOG
FORT BELVOIR   PTCLDY    60  60  97 NW1       29.94S FOG
QUANTICO       PTCLDY    64  61  90 NW5       29.94
FREDERICKSBRG* PTCLDY    64  64 100 CALM      29.94R FOG
STAFFORD*      PTCLDY    58  57  97 CALM      29.98R FOG
WARRENTON      FOG       61  61 100 CALM      29.95R VSB<1/4
CULPEPER*      FOG       58  58 100 CALM      29.96R VSB 1/4
MANASSAS*      CLOUDY    63  61  94 CALM      29.95R VSB<1/4
LEESBURG*      PTCLDY    61  61 100 CALM      29.96R FOG
WINCHESTER     FOG       61  61 100 CALM      29.96R VSB<1/4
FRONT ROYAL*   FAIR      61  59  94 CALM      29.95R
LURAY*         FOG       61  61 100 CALM      29.98R VSB<1/4
$$

VAZ048-049-060>072-079>083-031100-
CENTRAL AND SOUTH CENTRAL VIRGINIA

CITY           SKY/WX    TMP DP  RH WIND       PRES   REMARKS
RICHMOND       MOCLDY    67  65  93 CALM      29.94R FOG
CHESTERFIELD*  NOT AVBL
PETERSBURG*    FOG       63  63 100 CALM      29.95R VSB 3/4
HANOVER        MOCLDY    62  61  96 CALM      29.96R FOG
TAPPAHANNOCK*  MOCLDY    63  59  89 CALM      29.95R FOG
QUINTON*       FAIR      65  65  99 CALM      29.94R
CHARLOTTSVILLE CLOUDY    63  62  97 SW3       29.95R FOG
GORDONSVILLE*  FAIR      61  61 100 CALM      29.95R FOG
ORANGE*          N/A     63  61  94 CALM      29.96R FOG
LOUISA*        MOCLDY    59  57  94 CALM      29.95R FOG
BUMPASS*       FAIR      60  60  99 CALM      29.95R
FARMVILLE*     FOG       64  64 100 CALM      29.94R VSB<1/4
CREWE*           N/A     64  63  96 CALM      29.95R VSB 1
FORT PICKETT*  FAIR      64  63  97 CALM      29.96R
CHASE CITY*    FAIR      67  67 100 CALM      29.96R
CLARKSVILLE*   FAIR      66  64  94 CALM      29.94S
SOUTH HILL*      N/A     65  64  99 CALM      30.01R
LAWRENCEVILLE* NOT AVBL
EMPORIA*         N/A     64  64 100 CALM      29.97R FOG
$$

VAZ088>098-031100-
SOUTHEAST VIRGINIA

CITY           SKY/WX    TMP DP  RH WIND       PRES   REMARKS
NORFOLK        PTCLDY    72  65  78 NE9       29.92R
VIRGINIA BEACH PTCLDY    72  67  84 NE6       29.92R HAZE
NORFOLK NAVAL  MOCLDY    72  67  84 NE10      29.94R HAZE
WEST POINT*    PTCLDY    68  65  92 CALM      29.94R
SALUDA*        FAIR      69  66  89 NW7       29.93R
NEWPORT NEWS   PTCLDY    67  65  93 N6        29.93R FOG
LANGLEY AFB    PTCLDY    70  68  93 N9        29.91R
FORT EUSTIS    PTCLDY    69  69 100 N3        29.91R
WILLIAMSBURG*    N/A     70  68  94 N5        29.94R
HR EXEC AP*    PTSUNNY   68  64  88 CALM      29.96R
FRANKLIN*      PTCLDY    67  66  98 CALM      29.95R FOG
WAKEFIELD      PTCLDY    67  65  93 CALM      29.93R FOG
$$

VAZ020-022-025-037-045-031100-
WEST CENTRAL AND SOUTHWEST VIRGINIA

CITY           SKY/WX    TMP DP  RH WIND       PRES   REMARKS
STAUNTON*      FOG       65  63  95 CALM      30.00R VSB 1/2
WAYNESBORO*    CLOUDY    61  61 100 CALM      29.99R
HOT SPRINGS VA FOG       60  60 100 SE5       30.04R VSB<1/4
LYNCHBURG      MOCLDY    65  65 100 CALM      29.97R FOG
DANVILLE       CLOUDY    68  66  93 CALM      29.95R FOG
SOUTH BOSTON*  CLOUDY    65  64  95 MISG      29.94S
MARTINSVILLE   CLOUDY    68  68 100 CALM      29.98S FOG
ROANOKE        CLOUDY    68  66  93 NE3       29.98R FOG
BLACKSBURG     CLOUDY    64  64 100 NE3       30.02R FOG
DUBLIN*        CLOUDY    66  66 100 CALM      30.00R FOG
MARION*        HVY RAIN  66  64  96 CALM      30.01S
HILLSVILLE*    CLOUDY    64  64  99 S5        30.00R FOG
RICHLANDS*     LGT RAIN  64  64 100 SE5       29.97S VSB 1
WISE*          CLOUDY    66  66 100 CALM      29.98R FOG
ABINGDON*      CLOUDY    68  68 100 CALM      29.96R
$$

MDZ021>025-VAZ099-100-031100-
SOUTHERN MARYLAND AND THE DELMARVA PENINSULA

CITY           SKY/WX    TMP DP  RH WIND       PRES   REMARKS
PATUXENT RIVER CLEAR     65  64  97 CALM      29.93R FOG
BAY BRIDGE APT   N/A     66  64  94 CALM      29.94S FOG
LEONARDTOWN    CLEAR     61  61 100 CALM      29.95R
DOVER          CLEAR     64  64 100 W1        29.91R
GEORGETOWN     CLEAR     62  61  96 CALM      29.95R FOG
EASTON         FOG       63  63 100 CALM      29.97R VSB 3/8
CAMBRIDGE      CLEAR     61  59  94 CALM      29.93R
SALISBURY      PTCLDY    61  60  97 CALM      29.94R FOG
OCEAN CITY     FOG       61  60  97 N3        29.93R VSB 1/2
WALLOPS ISLAND CLEAR     66  66 100 N6        29.94R FOG
ACCOMACK*      CLEAR     64  64 100 NE3       29.93R FOG
$$

NCZ012>017-030>032-031100-
NORTH CENTRAL AND EASTERN NORTH CAROLINA

CITY           SKY/WX    TMP DP  RH WIND       PRES   REMARKS
ROANOKE RAPIDS CLOUDY    68  68 100 CALM      29.95R FOG
RALEIGH        CLOUDY    72  70  94 CALM      29.95S FOG
ELIZABETH CITY CLOUDY    72  71  97 W5        29.94R
AHOSKIE*       MOCLDY    69  67  94 CALM      29.95R FOG
EDENTON*       CLOUDY    70  69  97 CALM      29.93R FOG
CURRITUCK*     CLOUDY    72  70  92 CALM      29.94R
KILL DEVIL HLS PTCLDY    71  69  95 CALM      29.91R FOG
MANTEO         MOCLDY    73  73  98 W5        29.92R
CAPE HATTERAS  MOCLDY    76  70  82 W8        29.93R
TARBORO*         N/A     72  71  95 CALM      29.96R FOG
GOLDSBORO      PTCLDY    71  69  95 SW3       29.94R
WASHINGTON     PTCLDY    71  70  96 W6        29.95R
GREENVILLE     CLOUDY    72  72 100 CALM      29.97R
NEW BERN       MOCLDY    72  67  84 SW7       29.96R
WILMINGTON     CLOUDY    72  69  90 SW6       29.97S
$$

VAZ048-031100-
ELSEWHERE

CITY           SKY/WX    TMP DP  RH WIND       PRES   REMARKS
HARRISBURG PA  PTCLDY    63  60  90 NW3       29.95R
BALTIMORE      PTCLDY    62  61  96 CALM      29.94R FOG
ANNAPOLIS      CLEAR     66  64  93 CALM      29.93R FOG
ANDREWS AFB    CLEAR     61  61 100 CALM      29.94  FOG
PHILADELPHIA   PTCLDY    68  61  78 N5        29.94R
HENDERSON NC   CLOUDY    67  65  93 E3        29.95R FOG
GREENSBORO     MOCLDY    68  66  94 SE3       29.94S FOG
ROCKY MOUNT    CLOUDY    73  71  93 NW3       29.95R FOG
$$

VAZ100-031100-
MARINE

STATION/POSITION TIME  TEMP    WIND        PRES    WAVE   SWELL
                       AIR SEA DIR/SP/G            HT/PER HT/PER
                 (UTC) (F)     (DEG/KT/KT) (MB)    (FT/S) (FT/S)
BRANDYWINE LGT   0900   72 73   10/ 10/ 11 1013.1R
CAPE MAY NJ      0900   68 76   40/  1/  2 1012.6R
LEWES DE         0900   68 71  290/  3/  3 1012.9R
15NM E FENWICK I 0950   71 73              1013.1R   3/ 7
OCEAN-CITY-INLET 0900   66 71  310/  3/  4 1012.9R
WACHAPREAGUE VA  0900   67 79  360/  2/  5 1013.0R
THOMAS POINT MD  1000   68 76  330/  5/  6 1014.3R
GOOSES REEF MD   1000   72 77  360/  8/ 10 1014.5R
COVE POINT MD    0900   69     320/  7/  9 1013.7R
SOLOMONS ISLAND  0900      79                N/A
BISHOPS HEAD MD  0900   69     350/  3/  5 1012.9R
PINEY POINT MD   0900          360/  5/  6   N/A
CAMBRIDGE MD     0900   68 78   CALM  /  1 1013.0R
LEWISETTA VA     0900   69 79  330/  4/  4 1012.9R
RAPPAHANNOCK LGT 0900           30/  9/ 11 1013.3R
STINGRAY PT      1000   73 80  340/ 10/ 12 1013.4R   1/ 2
YORK RVR RNG VA  0900   73      10/ 13/ 15 1011.8S
YORKTOWN VA      0900   70 79   10/  8/ 11 1012.4R
JAMESTOWN VA     1000   69 82  360/  4/  6   N/A
DOMINION TERM VA 0900   71      10/  5/  8 1012.1S
KIPTOPEKE VA     0900      81   40/  6/  8   N/A
CHES BAY BRIDGE  0900   73 77   20/ 12/ 14 1011.7R
CAPE HENRY VA    0900   72      20/ 11/ 13 1010.6R
CHESAPEAKE LGHT  0900   73      20/ 14/ 15 1012.6R
WILLOUBY STN VA  0900   72     360/ 10/ 12 1013.1R
CAPE HENRY BUOY  0928      78                N/A     3/ 8
1ST LANDING BUOY 1000      76              1013.0R   2/ 3
CAPE CHARLES BUO 0926      75                N/A     3/ 8   2/ 8
OFFSHORE WE BUOY 0911      78                N/A     4/ 8   3/ 8
64NM E OF VA BCH 0950   74 76   30/ 14/ 16 1012.1R   5/ 7   3/ 7
DUCK PIER NC     0900   71 67   60/  4/  4 1011.3R
44100 DUCK FRF   0924      77                N/A     3/ 7
44056 DUCK FRF   0911      74                N/A     2/ 8
OREGON INLET NC  0900   75 82  240/  7/  8 1012.0R
HATTERAS NC      0900   76 78  250/  6/  9 1012.3R
DIAMOND SHLS NC  0950   78 83  250/ 16/ 17 1012.8R   7/ 7   3/15
CAPE LOOKOUT NC  1000   76     250/ 17/ 21 1014.0R
$$



USA.gov is the U.S. government's official web portal to all federal, state and local government web resources and services.